TimeEDT,TemperatureF,Dew PointF,Humidity,Sea Level PressureIn,VisibilityMPH,Wind Direction,Wind SpeedMPH,Gust SpeedMPH,PrecipitationIn,Events,Conditions,WindDirDegrees,DateUTC
12:58 AM,75.0,64.0,69,30.09,10.0,SW,10.4,-,N/A,,Clear,220,2013-05-18 04:58:00
1:58 AM,73.9,63.3,69,30.09,10.0,SW,8.1,-,N/A,,Clear,220,2013-05-18 05:58:00
2:58 AM,71.1,63.0,75,30.09,10.0,WSW,5.8,-,N/A,,Clear,240,2013-05-18 06:58:00
3:58 AM,69.4,63.0,80,30.09,10.0,WSW,5.8,-,N/A,,Clear,250,2013-05-18 07:58:00
4:58 AM,66.9,61.9,84,30.09,10.0,West,5.8,-,N/A,,Clear,260,2013-05-18 08:58:00
5:58 AM,66.7,61.7,84,30.11,10.0,West,2.3,-,N/A,,Clear,260,2013-05-18 09:58:00
6:58 AM,68.4,61.9,80,30.13,10.0,SW,4.6,-,N/A,,Overcast,220,2013-05-18 10:58:00
7:58 AM,70.3,61.3,73,30.14,10.0,SW,5.8,-,N/A,,Partly Cloudy,220,2013-05-18 11:58:00
8:58 AM,74.1,61.2,64,30.16,10.0,WSW,9.2,-,N/A,,Partly Cloudy,240,2013-05-18 12:58:00
9:58 AM,78.4,61.7,56,30.16,10.0,WSW,11.5,-,N/A,,Scattered Clouds,250,2013-05-18 13:58:00
10:58 AM,79.5,63.7,58,30.16,10.0,SW,9.2,-,N/A,,Partly Cloudy,230,2013-05-18 14:58:00
11:58 AM,82.4,61.9,50,30.16,10.0,Variable,1.2,-,N/A,,Scattered Clouds,0,2013-05-18 15:58:00
12:58 PM,83.3,61.3,47,30.14,10.0,SSE,6.9,-,N/A,,Mostly Cloudy,160,2013-05-18 16:58:00
1:58 PM,83.7,59.9,44,30.13,10.0,WSW,6.9,-,N/A,,Mostly Cloudy,250,2013-05-18 17:58:00
2:58 PM,84.0,62.1,47,30.09,10.0,Variable,3.5,-,N/A,,Scattered Clouds,0,2013-05-18 18:58:00
3:58 PM,84.6,60.3,44,30.09,10.0,SW,9.2,-,N/A,,Partly Cloudy,230,2013-05-18 19:58:00
4:58 PM,83.1,60.3,46,30.09,10.0,SW,9.2,-,N/A,,Partly Cloudy,220,2013-05-18 20:58:00
5:58 PM,82.2,60.4,48,30.09,10.0,SW,8.1,-,N/A,,Clear,220,2013-05-18 21:58:00
6:58 PM,77.4,65.8,67,30.10,10.0,WNW,4.6,-,N/A,,Partly Cloudy,300,2013-05-18 22:58:00
7:10 PM,77.0,66.2,69,30.10,10.0,WNW,8.1,-,N/A,,Light Drizzle,290,2013-05-18 23:10:00
7:58 PM,72.9,67.6,84,30.13,10.0,West,5.8,-,0.00,,Light Drizzle,270,2013-05-18 23:58:00
8:58 PM,70.2,67.5,91,30.14,10.0,SSW,4.6,-,0.01,Rain,Light Rain,210,2013-05-19 00:58:00
9:55 PM,69.8,68.0,94,30.13,10.0,East,2.3,-,N/A,,Mostly Cloudy,100,2013-05-19 01:55:00
9:58 PM,70.3,68.2,93,30.14,10.0,ESE,1.2,-,0.02,,Mostly Cloudy,110,2013-05-19 01:58:00
10:58 PM,69.6,68.7,97,30.14,10.0,East,2.3,-,N/A,,Partly Cloudy,90,2013-05-19 02:58:00
11:58 PM,70.2,67.8,92,30.14,10.0,ESE,3.5,-,N/A,,Mostly Cloudy,110,2013-05-19 03:58:00
11:59 PM,69.8,68.0,94,30.14,10.0,ESE,3.5,-,N/A,,Light Drizzle,110,2013-05-19 03:59:00